一网星座-0181星 (ONEWEB-0181 )

导读

ONEWEB-0181是英国OneWeb(一网)低轨卫星互联网星座的一员,于2021年4月25日发射入轨。该卫星运行在1200公里高度的近地轨道,工作在Ku波段,依托OneWeb全球星座布局,旨在为全球偏远及基础设施薄弱区域提供高速低延迟的宽带互联网接入服务,助力全球网络覆盖的均衡化发展。

基本信息
目录编号:
48230
目录名称:
ONEWEB-0181
国际标识:
2021-031W
轨道中心:
EARTH
卫星名称:
一网星座-0181星
卫星全名:
一网星座-0181星 (ONEWEB-0181 )
卫星状态:
在轨 (已飞行1876 天)
发射日期:
2021-04-25 UTC
国别 :
英国 (GB)
星等 :
--
轨道信息
数据来源 国际轨道数据 AOE轨道数据
星历时间 2026-06-14T05:33:07+0800
12小时前
查看轨道信息
2026-06-10T05:00:00+0800
4天前
查看轨道信息
半长轴 7583.926km 7583.888km
偏心率 0.0001954 0.0001746
轨道倾角 87.895° 87.899°
近地点辐角 106.670° 73.842°
升交点赤经 290.382° 291.182°
平近点角 253.464° 339.502°
近地点 1204.307km 1204.426km
远地点 1207.271km 1207.076km
周期 109.547分钟 109.546分钟
每日圈数 13.145032 13.145131
详细信息
平衡模式:
三轴稳定
覆盖范围:
全球
运营商:
一网卫星公司
运营商所在国:
英国
制造商(研发单位):
一网卫星公司
制造商所在国:
英国
使用方式:
暂无
卫星简介
OneWeb卫星网络由648颗重约125公斤的微型卫星组成,运行在1200公里的轨道上。 每颗卫星都能够提供至少每秒8千兆位的吞吐量,以使用其高吞吐量的Ku频段有效载荷为家庭和移动平台提供互联网接入。该卫星仍在工作。
2D轨道图
3D轨道图
轨道高度分析图
轨道倾角分析图
轨道综合分析图
查看轨道综合分析图